Regional Weather Roundup
Issued by NWS Columbia, SC

Home | Current Version | Previous Version | Text Only | Print | Product List | Glossary On
Versions: 1 2 3 4 5 6 7 8 9 10 11 12 13 14 15 16 17 18 19 20 21 22 23 24 25 26 27 28 29 30 31 32 33 34 35 36 37 38 39 40 41 42 43 44 45 46 47 48 49 50
000
ASUS42 KCAE 250610
RWRCAE
REGIONAL WEATHER ROUNDUP
NATIONAL WEATHER SERVICE COLUMBIA SC
200 AM EDT MON JUL 25 2016

NOTE: "FAIR" INDICATES FEW OR NO CLOUDS BELOW 12,000 FEET WITH NO
SIGNIFICANT WEATHER AND/OR OBSTRUCTIONS TO VISIBILITY.

NOT ALL STATIONS ARE QUALITY CONTROLLED BY THE NATIONAL
WEATHER SERVICE. USE DATA WITH CAUTION...ESPECIALLY
DEWPOINT OBSERVATIONS.

SCZ001>056-GAZ040-063>065-077-250700-
...UPSTATE SOUTH CAROLINA...

CITY           SKY/WX    TMP DP  RH WIND       PRES   REMARKS
ANDERSON       CLEAR     79  71  76 CALM      30.04S
6HR MIN TEMP:  79; 6HR MAX TEMP:  92;

LIBERTY        CLEAR     73  72  97 SW3       30.04F
6HR MIN TEMP:  73; 6HR MAX TEMP:  86;

SPARTANBURG    CLEAR     79  70  73 CALM      30.03S
CLEMSON        CLEAR     81  71  71 CALM      30.05F
6HR MIN TEMP:  80; 6HR MAX TEMP:  92;

GREENVILLE     CLEAR     82  69  64 SW3       30.05F
6HR MIN TEMP:  82; 6HR MAX TEMP:  93;

GREENWOOD      PTCLDY    80  69  69 S7        30.05F
6HR MIN TEMP:  80; 6HR MAX TEMP:  88;

GREER          CLEAR     79  70  74 SW6       30.03F
6HR MIN TEMP:  79; 6HR MAX TEMP:  90;

ROCK HILL      CLEAR     79  72  79 SW8       30.05S
6HR MIN TEMP:  79; 6HR MAX TEMP:  89;

CHESTER        CLEAR     77  70  78 SW3       30.05F
LAURENS        PTCLDY    79  70  73 SW7       30.04S


...CENTRAL SOUTH CAROLINA...

CITY           SKY/WX    TMP DP  RH WIND       PRES   REMARKS
COLUMBIA APT   CLEAR     82  73  74 S6        30.03F
6HR MIN TEMP:  82; 6HR MAX TEMP:  92;

COLUMBIA OWENS CLEAR     82  75  79 S5          N/A
6HR MIN TEMP:  82; 6HR MAX TEMP:  89;

MCENTIRE ANGB  CLEAR     77  76  96 CALM      30.05S
6HR MIN TEMP:  77; 6HR MAX TEMP:  84;

ORANGEBURG     CLEAR     78  75  90 S3        30.06S
6HR MIN TEMP:  78; 6HR MAX TEMP:  88;

SUMTER SHAW    CLEAR     80  74  84 S6        30.02F
6HR MIN TEMP:  80; 6HR MAX TEMP:  87;

NEWBERRY       PTCLDY    79  72  78 S3        30.07F
AIKEN          FAIR      77  70  78 S7        30.08S
MANNING        FAIR      79  73  83 S5        30.05S
LANCASTER      CLEAR     81  75  83 CALM      30.04F


...EASTERN AND COASTAL SOUTH CAROLINA...

CITY           SKY/WX    TMP DP  RH WIND       PRES   REMARKS
MYRTLE BEACH   CLEAR     82  70  65 SW5       30.07S
6HR MIN TEMP:  82; 6HR MAX TEMP:  86;

N MYRTLE BCH   CLEAR     82  77  84 SW8       30.05S
6HR MIN TEMP:  82; 6HR MAX TEMP:  85;

CONWAY         FAIR      75  73  94 CALM      30.06S
MARION           N/A     77  75  94 S3        30.05S
HARTSVILLE     FAIR      77  73  88 S3        30.04F
FLORENCE       CLEAR     79  75  87 S6        30.05S
6HR MIN TEMP:  79; 6HR MAX TEMP:  88;

DARLINGTON     CLEAR     79  76  90 SW6       30.05S
6HR MIN TEMP:  79; 6HR MAX TEMP:  87;

CHARLESTON APT PTCLDY    79  75  87 S5        30.05F
6HR MIN TEMP:  79; 6HR MAX TEMP:  85;

MOUNT PLEASANT FAIR      81  77  89 CALM      30.06S
WALTERBORO     CLEAR     79  79 100 SW3       30.06F
BEAUFORT       CLEAR     81  74  79 SW5       30.06S
6HR MIN TEMP:  81; 6HR MAX TEMP:  87;



...EASTERN GEORGIA...

CITY           SKY/WX    TMP DP  RH WIND       PRES   REMARKS
AUGUSTA BUSH F MOCLDY    77  74  90 CALM      30.03F
6HR MIN TEMP:  76; 6HR MAX TEMP:  89;

AUGUSTA DANIEL MOCLDY    83  70  64 S3        30.05F
6HR MIN TEMP:  83; 6HR MAX TEMP:  93;

WASHINGTON     FAIR      81  73  78 S3        30.05S
CLAXTON        FAIR      74  74 100 CALM      30.06S
6HR MIN TEMP:  74; 6HR MAX TEMP:  85;

STATESBORO     MOCLDY    78  75  90 S5        30.05F
6HR MIN TEMP:  77; 6HR MAX TEMP:  87;

SAVANNAH       PTCLDY    78  74  87 CALM      30.06F
6HR MIN TEMP:  78; 6HR MAX TEMP:  87;



...SOUTHERN NORTH CAROLINA...

CITY           SKY/WX    TMP DP  RH WIND       PRES   REMARKS
CHARLOTTE      PTCLDY    79  71  76 S7        30.04F
6HR MIN TEMP:  79; 6HR MAX TEMP:  90;

MONROE         CLEAR     80  72  76 S7        30.04F
6HR MIN TEMP:  79; 6HR MAX TEMP:  90;

ROCKINGHAM     CLEAR     79  76  91 S6        30.04S
RUTHERFORDTON    N/A     74  74 100 CALM      30.06S
ASHEVILLE      CLEAR     72  68  87 CALM      30.13F
6HR MIN TEMP:  71; 6HR MAX TEMP:  85;


$$



USA.gov is the U.S. government's official web portal to all federal, state and local government web resources and services.